STARLINK-35806

Last updated on Sun Dec 07 2025 00:02:05 GMT+0000 (Coordinated Universal Time)

1 66363U 25254R 25340.58335648 -.00132042 00000+0 -24018-2 0 9998 2 66363 53.1600 305.9823 0000965 77.5182 359.6155 15.49363082 5900
UTC large
Height (km)
Speed (km/s)
/
Latitude / Longitude
Inclination (degrees)
Orbital Period (minutes)
Azimuth
Elevation
Range (km)
Doppler Factor

Next 0 passes for location: London (51.5072 / 0.1276)

Sorry there are no passes over London.